Printer-friendly version

IAU Minor Planet Center

Minor Planet Center

MPEC 2006-S15 : 2006 SY5

The following Minor Planet Electronic Circular may be linked-to from your own Web pages, but must not otherwise be redistributed electronically.


Read MPEC 2006-S14 Read MPEC 2006-S16


M.P.E.C. 2006-S15                                Issued 2006 Sept. 18, 19:13 UT

     The Minor Planet Electronic Circulars contain information on unusual
         minor planets and routine data on comets.  They are published
   on behalf of Commission 20 of the International Astronomical Union by the
          Minor Planet Center, Smithsonian Astrophysical Observatory,
                          Cambridge, MA 02138, U.S.A.

                  Supported in part by the Brinson Foundation
                  Supported in part by the TABASGO Foundation
             Prepared using the Tamkin Foundation Computer Network

                              MPC@CFA.HARVARD.EDU
          URL http://cfa-www.harvard.edu/iau/mpc.html  ISSN 1523-6714

                                   2006 SY5

Observations:
     K06S05Y* C2006 09 16.21463 23 31 15.78 +13 17 19.5          20.0 V ES015703
     K06S05Y  C2006 09 16.22205 23 31 13.98 +13 17 27.8          19.4 V ES015703
     K06S05Y  C2006 09 16.22943 23 31 12.03 +13 17 34.6          19.6 V ES015703
     K06S05Y  C2006 09 16.23684 23 31 10.20 +13 17 43.6          19.5 V ES015703
     K06S05Y  C2006 09 16.29808 23 30 54.68 +13 18 41.4          19.4 V ES015703
     K06S05Y  C2006 09 16.29985 23 30 54.32 +13 18 42.7          19.2 V ES015703
     K06S05Y  C2006 09 16.38488 23 30 32.85 +13 20 01.8          19.4 V ES015703
     K06S05Y  C2006 09 16.38962 23 30 31.65 +13 20 06.9          19.2 V ES015703
     K06S05Y  C2006 09 16.39444 23 30 30.43 +13 20 11.2          19.4 V ES015703
     K06S05Y  C2006 09 17.21284 23 27 19.33 +13 32 54.7          19.1 V ES015703
     K06S05Y  C2006 09 17.22584 23 27 16.05 +13 33 06.9          18.9 V ES015703
     K06S05Y  C2006 09 17.23880 23 27 12.81 +13 33 19.0          19.1 V ES015703
     K06S05Y  C2006 09 17.25174 23 27 09.50 +13 33 31.9          19.2 V ES015703
     K06S05Y 5C2006 09 17.31979 23 26 52.45 +13 34 31.7          19.6 R ES015673
     K06S05Y 5C2006 09 17.32326 23 26 51.66 +13 34 34.7                 ES015673
     K06S05Y 5C2006 09 17.33102 23 26 49.69 +13 34 41.7                 ES015673
     K06S05Y 5C2006 09 17.33449 23 26 48.74 +13 34 45.3                 ES015673
     K06S05Y  C2006 09 18.17179 23 23 31.16 +13 47 09.8          20.0 V ES015703
     K06S05Y  C2006 09 18.18021 23 23 29.00 +13 47 18.0          20.4 V ES015703
     K06S05Y  C2006 09 18.18860 23 23 26.88 +13 47 25.2          19.8 V ES015703
     K06S05Y  C2006 09 18.19697 23 23 24.72 +13 47 34.6          19.7 V ES015703
     K06S05Y  C2006 09 18.26675 23 23 07.02 +13 48 35.6          19.7 R ES015854
     K06S05Y  C2006 09 18.27180 23 23 05.65 +13 48 40.1          19.6 R ES015854
     K06S05Y  C2006 09 18.27688 23 23 04.39 +13 48 46.1          19.7 R ES015854
     K06S05Y  C2006 09 18.31100 23 22 55.01 +13 49 07.9          20.0 R ES015734
     K06S05Y  C2006 09 18.31245 23 22 54.64 +13 49 09.4                 ES015734
     K06S05Y 5C2006 09 18.31319 23 22 55.35 +13 49 14.1          19.4 R ES015673
     K06S05Y  C2006 09 18.32008 23 22 52.69 +13 49 15.8          19.3 R ES015734
     K06S05Y  C2006 09 18.32084 23 22 52.55 +13 49 15.6          19.9 R ES015734
     K06S05Y 5C2006 09 18.32280 23 22 52.92 +13 49 22.3                 ES015673
     K06S05Y 5C2006 09 18.32870 23 22 51.41 +13 49 27.4                 ES015673
     K06S05Y 5C2006 09 18.33056 23 22 50.94 +13 49 29.2                 ES015673

Observer details:
673 Table Mountain Observatory, Wrightwood.  Observer J. Young.  0.61-m f/16
    Cassegrain + CCD.
703 Catalina Sky Survey.  Observers E. J. Christensen, A. R. Gibbs,
    R. A. Kowalski.  Measurers E. C. Beshore, E. J. Christensen, G. J. Garradd,
    A. R. Gibbs, A. D. Grauer, R. E. Hill, R. A. Kowalski, S. M. Larson,
    R. H. McNaught.  0.68-m Schmidt + CCD.
734 Farpoint Observatory.  Observer D. Tibbets.  Measurer G. Hug.  0.7-m
    reflector + CCD.
854 Sabino Canyon Observatory, Tucson.  Observer J. E. McGaha.  0.36-m f/10.0
    Schmidt-Cassegrain + CCD.

Orbital elements:
2006 SY5                                                 Earth MOID = 0.1077 AU
Epoch 2006 Sept. 22.0 TT = JDT 2454000.5                MPC
M 215.13631              (2000.0)            P               Q
n   0.92476477     Peri.  175.67846     -0.88177285     -0.46858718
a   1.0433945      Node   336.14552     +0.42866152     -0.74846145
e   0.1537134      Incl.    7.65579     +0.19678910     -0.46928831
P   1.07           H   22.1           G   0.15           U   8
Residuals in seconds of arc
060916 703  0.1+  0.7-    060917 703  0.2+  0.0     060918 854  0.3-  0.2+
060916 703  1.0+  0.3+    060917 703  0.1-  0.8+    060918 854  0.3+  1.8+
060916 703  0.5-  0.2-    060917 673  0.6-  0.3-    060918 734  0.1-  0.4-
060916 703  0.0   1.6+    060917 673  0.8+  0.4-    060918 734  0.1-  0.1-
060916 703  0.9-  0.2+    060917 673  0.9+  0.4-    060918 673  0.5-  0.1-
060916 703  0.4+  0.2-    060917 673  0.1-  0.0     060918 734  0.3-  0.2-
060916 703  0.1+  0.8-    060918 703  0.4+  0.5-    060918 734  0.5+  1.0-
060916 703  0.0   0.1-    060918 703  0.1-  0.0     060918 673  0.0   0.2-
060916 703  0.2-  0.2-    060918 703  0.1-  0.4-    060918 673  0.0   0.2-
060917 703  0.6-  0.1+    060918 703  0.7-  1.4+    060918 673  0.1+  0.0
060917 703  0.4-  0.0     060918 854  0.8+  0.1+

Ephemeris:
2006 SY5                 a,e,i = 1.04, 0.15, 8                   q = 0.8830
Date    TT    R. A. (2000) Decl.     Delta      r     Elong.  Phase     V
2006 09 12    23 47.32   +12 04.7    0.193    1.192   162.2    15.0    19.7
2006 09 22    23 08.19   +14 37.4    0.186    1.181   160.9    16.2    19.7
2006 10 02    22 31.19   +15 55.2    0.192    1.168   147.9    27.1    20.1
2006 10 12    22 04.13   +16 16.4    0.208    1.152   134.2    38.4    20.5
2006 10 22    21 48.93   +16 14.5    0.228    1.134   122.5    47.8    21.0
2006 11 01    21 44.11   +16 16.4    0.249    1.113   112.9    55.3    21.3
2006 11 11    21 47.02   +16 34.0    0.268    1.090   104.9    61.3    21.6
2006 11 21    21 55.52   +17 09.1    0.284    1.066    98.2    66.6    21.9
2006 12 01    22 08.15   +18 01.6    0.294    1.040    92.3    71.3    22.0

Kyle E. Smalley              (C) Copyright 2006 MPC           M.P.E.C. 2006-S15

Read MPEC 2006-S14 Read MPEC 2006-S16


Our Web policy. Index to the CBAT/MPC/ICQ pages.


Valid HTML 4.01!